[[{"header":{"parameterUnit":"m.s-1","parameterCategory":1,"la1":30.2991,"la2":30.254,"lo1":-89.0895,"lo2":-89.0444,"dy":0.0017,"dx":0.0017,"nx":28,"ny":28,"refTime":"2025-08-07T09:00:00:Z","depth":0,"parameterNumber":2,"parameterNumberName":"U-component_of_WINDS"},"data":[0,0,0,0,0,0,0,0,0,0,0,0,0,0,0,0,0,0,0,0,0,0,0,0,0,0,0,0,0,0,0,0,0,0,0,0,0,0,0,0,0,0,0,0,0,0,0,0,0,0,0,0,0,0,0,0,0,0,-3.8269,-3.8266,0,-3.8022,-3.8019,-3.8016,-3.7793,-3.779,-3.7788,-3.7785,-3.7522,-3.7518,-3.7513,0,0,0,0,0,0,0,0,0,0,0,0,0,-3.854,-3.8536,-3.8269,-3.8266,-3.8263,-3.8022,-3.8019,-3.8016,-3.7793,-3.779,-3.7787,-3.7784,-3.7523,-3.7518,-3.7513,0,0,0,0,0,0,0,0,0,0,0,0,0,-3.8371,-3.8535,-3.827,-3.8124,-3.8108,-3.8023,-3.8019,-3.8015,-3.7794,-3.779,-3.7786,-3.7782,-3.7525,-3.7519,-3.7512,-3.7549,0,0,-3.7491,-3.7488,0,0,0,0,0,0,0,0,-3.8381,-3.8361,-3.8148,-3.8133,-3.8116,-3.7934,-3.8018,-3.7858,-3.7795,-3.7913,-3.7785,-3.7781,-3.7662,-3.7643,-3.7605,-3.7536,-3.7525,-3.749,-3.7486,-3.7483,-3.7481,0,0,0,0,0,0,0,-3.8393,-3.837,-3.8171,-3.8145,-3.8126,-3.8067,-3.8039,-3.7986,-3.7812,-3.7902,-3.7886,-3.786,-3.7652,-3.7613,-3.7598,-3.7521,-3.7491,-3.7484,-3.748,-3.7478,-3.7468,-3.7472,0,0,0,0,0,0,-3.8428,-3.8382,-3.8179,-3.8164,-3.8242,-3.8066,-3.8034,-3.7996,-3.7812,-3.778,-3.7864,-3.7851,-3.7626,-3.7606,-3.7587,-3.7616,-3.7483,-3.7477,-3.7473,-3.7464,-3.7469,-3.7473,0,0,0,0,0,0,-3.8435,-3.8412,-3.8189,-3.8268,-3.8235,-3.8065,-3.8025,-3.7994,-3.7954,-3.7783,-3.775,-3.7856,-3.7622,-3.7597,-3.756,-3.7604,-3.7474,-3.7468,-3.746,-3.7466,-3.7471,-3.7677,0,0,0,0,0,0,-3.8444,-3.8416,-3.843,-3.827,-3.8232,-3.8169,-3.8028,-3.7992,-3.7944,-3.7924,-3.7767,-3.7737,-3.7617,-3.7572,-3.7554,-3.7592,-3.7462,-3.7455,-3.7462,-3.7469,-3.7665,-3.7689,-3.7709,0,0,0,0,0,-3.8454,-3.8496,-3.8432,-3.8409,-3.8247,-3.8172,-3.815,-3.8014,-3.7949,-3.796,-3.785,-3.7742,-3.7604,-3.757,-3.7547,-3.7585,-3.7451,-3.746,-3.7469,-3.7655,-3.7684,-3.7709,0,0,0,0,0,0,-3.8661,-3.8472,-3.8399,-3.8391,-3.83,-3.8135,-3.8144,-3.8049,-3.7972,-3.7956,-3.7789,-3.7755,-3.7736,-3.7657,-3.7623,-3.761,-3.7513,-3.7517,-3.7662,-3.7688,-3.771,-3.7728,-3.7457,0,0,0,0,0,-3.8707,-3.8666,-3.8501,-3.851,-3.8468,-3.8316,-3.8278,-3.8182,-3.8079,-3.8038,-3.7925,-3.7827,-3.7761,-3.7721,-3.7651,-3.7654,-3.7615,-3.7669,-3.7691,-3.771,-3.7714,-3.7708,-3.7729,-3.7501,-3.7501,-3.7501,0,0,-3.8799,-3.8691,-3.8674,-3.8549,-3.8467,-3.8425,-3.8284,-3.8245,-3.8211,-3.8031,-3.7989,-3.7905,-3.7783,-3.7767,-3.7754,-3.77,-3.777,-3.7721,-3.7737,-3.7731,-3.7719,-3.7741,-3.776,-3.7507,-3.7506,-3.7505,0,0,-3.8944,-3.886,-3.8857,-3.8779,-3.8658,-3.8557,-3.8557,-3.8407,-3.8344,-3.8301,-3.8165,-3.8121,-3.8012,-3.793,-3.7875,-3.7994,-3.789,-3.7976,-3.8088,-3.8085,-3.8102,-3.8117,-3.8157,-3.8173,-3.7982,-3.7982,-3.7982,0,-3.9072,-3.9006,-3.8867,-3.8837,-3.8785,-3.8625,-3.8619,-3.8549,-3.8411,-3.8377,-3.8321,-3.818,-3.8087,-3.8049,-3.8079,-3.804,-3.8032,-3.7991,-3.8112,-3.8126,-3.8137,-3.8173,-3.8188,-3.7993,-3.7992,-3.7991,-3.799,0,-3.9169,-3.9126,-3.9138,-3.9012,-3.8961,-3.8944,-3.8799,-3.8765,-3.8675,-3.8579,-3.8536,-3.842,-3.8323,-3.8308,-3.8218,-3.8256,-3.8226,-3.8144,-3.8041,-3.8173,-3.8203,-3.8216,-3.8009,-3.8005,-3.8002,-3.7999,0,0,-3.9433,-3.9234,-3.924,-3.9181,-3.9038,-3.8999,-3.8975,-3.8884,-3.8856,-3.8767,-3.8739,-3.8652,-3.8575,-3.8513,-3.8412,-3.841,-3.8508,-3.8325,-3.832,-3.8361,-3.854,-3.8601,-3.8619,-3.8441,-3.8443,-3.8444,-3.8549,0,-3.9552,-3.9501,-3.9376,-3.9362,-3.9318,-3.9168,-3.9145,-3.9053,-3.8964,-3.8911,-3.8811,-3.8751,-3.8655,-3.8616,-3.8607,-3.8498,-3.8541,-3.8489,-3.8408,-3.8407,-3.844,-3.8635,-3.8699,-3.8804,-3.856,-3.8562,-3.8564,0,-3.9682,-3.9607,-3.959,-3.945,-3.9427,-3.9409,-3.9316,-3.927,-3.9162,-3.9096,-3.903,-3.892,-3.8882,-3.8792,-3.8735,-3.8703,-3.8663,-3.8605,-3.8606,-3.8589,-3.8491,-3.8621,-3.8834,-3.8849,-3.8582,-3.858,-3.8579,0,-3.9873,-3.9767,-3.9743,-3.9697,-3.9534,-3.9525,-3.9456,-3.9345,-3.9299,-3.9217,-3.9184,-3.9098,-3.905,-3.8985,-3.8854,-3.8801,-3.8811,-3.871,-3.8752,-3.8756,-3.8757,-3.8758,-3.8963,-3.8739,-3.8739,-3.8739,-3.8738,0,-4.0016,-4.0011,-3.9827,-3.9811,-3.98,-3.9657,-3.9649,-3.9565,-3.9468,-3.9431,-3.9296,-3.9264,-3.9095,-3.9042,-3.894,-3.8907,-3.8887,-3.883,-3.8802,-3.884,-3.8847,-3.8808,-3.8796,-3.8743,-3.8742,-3.8741,-3.874,0,-4.0226,-4.0103,-4.0066,-3.9916,-3.9878,-3.9877,-3.9746,-3.9724,-3.9629,-3.9584,-3.9565,-3.9413,-3.9345,-3.9209,-3.9102,-3.9033,-3.9022,-3.8975,-3.906,-3.9041,-3.909,-3.9086,-3.9274,-3.929,-3.9061,-3.9064,-3.9066,0,-4.0323,-4.0316,-4.0167,-4.0135,-4.0073,-4.0022,-3.9975,-3.9834,-3.979,-3.9669,-3.9661,-3.9583,-3.9512,-3.9409,-3.9287,-3.9204,-3.9151,-3.9223,-3.9137,-3.9176,-3.9148,-3.9149,-3.9146,-3.9241,-3.9244,-3.9247,-3.9249,0,-4.0508,-4.0448,-4.0388,-4.0308,-4.0257,-4.0185,-4.0106,-4.0087,-3.9926,-3.9884,-3.9814,-3.9761,-3.9653,-3.9576,-3.9476,-3.94,-3.9297,-3.9278,-3.9283,-3.9319,-3.9367,-3.9338,-3.9108,-3.9273,-3.9271,-3.9269,-3.9268,-3.9267,-4.0661,-4.0648,-4.0542,-4.0479,-4.0406,-4.0336,-4.0308,-4.0211,-4.0152,-4.0056,-3.9976,-3.9913,-3.9805,-3.966,-3.9592,-3.9538,-3.9488,-3.9495,-3.9496,-3.9499,-3.9514,-3.9381,-3.9519,-3.9518,-3.9517,-3.9517,-3.9516,0,-4.0836,-4.0762,-4.0706,-4.0602,-4.0553,-4.0467,-4.0375,-4.0338,-4.0286,-4.0196,-4.0131,-4.005,-3.9975,-3.985,-3.9763,-3.9744,-3.9695,-3.9726,-3.9723,-3.9707,-3.9565,-3.9568,-3.9768,-3.9768,-3.9767,-3.9767,-3.9767,-3.9767,-4.0921,-4.0893,-4.0822,-4.0756,-4.068,-4.0621,-4.0575,-4.0509,-4.0437,-4.0355,-4.0293,-4.0214,-4.0108,-4.0014,-3.994,-3.9904,-3.9877,-3.9923,-3.9872,-3.9741,-3.9717,-3.9695,-3.9697,-3.992,-3.992,-4.0018,-4.0019,-4.002]},{"header":{"parameterUnit":"m.s-1","parameterCategory":1,"la1":30.2991,"la2":30.254,"lo1":-89.0895,"lo2":-89.0444,"dy":0.0017,"dx":0.0017,"nx":28,"ny":28,"refTime":"2025-08-07T09:00:00:Z","depth":0,"parameterNumber":3,"parameterNumberName":"V-component_of_WINDS"},"data":[0,0,0,0,0,0,0,0,0,0,0,0,0,0,0,0,0,0,0,0,0,0,0,0,0,0,0,0,0,0,0,0,0,0,0,0,0,0,0,0,0,0,0,0,0,0,0,0,0,0,0,0,0,0,0,0,0,0,0.0702,0.0702,0,0.0743,0.0743,0.0744,0.0913,0.0917,0.0921,0.0925,0.0956,0.0953,0.0951,0,0,0,0,0,0,0,0,0,0,0,0,0,0.0759,0.0757,0.0702,0.0702,0.0703,0.0743,0.0743,0.0744,0.0912,0.0917,0.0922,0.0927,0.0957,0.0954,0.095,0,0,0,0,0,0,0,0,0,0,0,0,0,0.076,0.0756,0.0702,0.0792,0.0801,0.0743,0.0743,0.0744,0.0911,0.0917,0.0923,0.0929,0.0958,0.0954,0.095,0.0805,0,0,0.0937,0.0935,0,0,0,0,0,0,0,0,0.076,0.0758,0.0778,0.0786,0.0795,0.0829,0.0775,0.0764,0.091,0.0869,0.0925,0.0932,0.0908,0.0909,0.0903,0.0807,0.0808,0.0937,0.0934,0.0932,0.0931,0,0,0,0,0,0,0,0.0759,0.0757,0.0718,0.0778,0.0789,0.0827,0.0834,0.0774,0.0855,0.0873,0.0885,0.0888,0.0914,0.0907,0.0905,0.0809,0.0937,0.0933,0.093,0.0929,0.0592,0.0586,0,0,0,0,0,0,0.0748,0.0756,0.0717,0.0719,0.0792,0.0821,0.0829,0.0812,0.0856,0.0868,0.0883,0.0896,0.0911,0.091,0.0907,0.0739,0.0932,0.0928,0.0926,0.0598,0.0591,0.0584,0,0,0,0,0,0,0.0749,0.0743,0.0715,0.0741,0.074,0.0814,0.0794,0.081,0.0803,0.0864,0.0878,0.0862,0.0916,0.0913,0.0829,0.0742,0.0926,0.0922,0.0606,0.0596,0.0587,0.0402,0,0,0,0,0,0,0.075,0.0742,0.0691,0.0739,0.0738,0.064,0.0789,0.0806,0.0796,0.0813,0.0847,0.0858,0.092,0.0835,0.0825,0.074,0.0919,0.0614,0.0601,0.059,0.0416,0.0387,0.0362,0,0,0,0,0,0.0751,0.0635,0.0687,0.0682,0.0676,0.0635,0.0634,0.071,0.0789,0.0736,0.0774,0.0857,0.0753,0.0825,0.0815,0.0727,0.062,0.0605,0.0591,0.0428,0.0393,0.0363,0,0,0,0,0,0,0.0573,0.0643,0.0702,0.0599,0.061,0.0663,0.0599,0.0671,0.0657,0.0673,0.0765,0.0771,0.0673,0.0692,0.0771,0.0588,0.07,0.0683,0.058,0.0547,0.052,0.0517,0.0916,0,0,0,0,0,0.0522,0.0486,0.0548,0.0451,0.0454,0.0524,0.0509,0.0567,0.0581,0.0585,0.0618,0.0625,0.0594,0.0571,0.0546,0.0419,0.0427,0.0354,0.0327,0.0305,0.0288,0.022,0.0187,0.0536,0.0537,0.0537,0,0,0.0416,0.045,0.0421,0.0416,0.0431,0.0388,0.0527,0.0476,0.0444,0.0577,0.0501,0.0524,0.0538,0.0431,0.0386,0.0444,0.0194,0.0286,0.0268,0.0264,0.0202,0.0169,0.0139,0.0527,0.0529,0.053,0,0,0.0201,0.0223,0.0145,0.0157,0.0179,0.0227,0.0207,0.0249,0.0271,0.0197,0.0295,0.0255,0.02,0.0206,0.0201,-0.0016,0.0058,-0.0028,-0.0168,-0.0236,-0.0264,-0.0288,-0.0367,-0.0397,-0.0044,-0.0044,-0.0045,0,0.0065,0.0008,0.0094,0.0037,0.003,0.015,0.0068,0.0075,0.0085,0.0076,0.0142,0.0074,0.0092,-0.0013,-0.0066,-0.0073,-0.0096,-0.0031,-0.0266,-0.0289,-0.0311,-0.0385,-0.0415,-0.0055,-0.0054,-0.0053,-0.0052,0,-0.0161,-0.0203,-0.0271,-0.026,-0.0275,-0.0345,-0.0272,-0.0298,-0.024,-0.0201,-0.0281,-0.0256,-0.0274,-0.0295,-0.024,-0.0394,-0.0359,-0.0282,-0.0167,-0.0356,-0.0425,-0.0453,-0.007,-0.0066,-0.0063,-0.0061,0,0,-0.0485,-0.0428,-0.0454,-0.0449,-0.0417,-0.045,-0.0517,-0.0532,-0.0558,-0.0556,-0.0611,-0.0661,-0.059,-0.0596,-0.054,-0.0599,-0.0776,-0.0515,-0.0513,-0.0566,-0.0947,-0.1006,-0.104,-0.0726,-0.0731,-0.0735,-0.0948,0,-0.0691,-0.0797,-0.0723,-0.0843,-0.0883,-0.0772,-0.083,-0.082,-0.0786,-0.0817,-0.0781,-0.0819,-0.0721,-0.0724,-0.0778,-0.0743,-0.0851,-0.0726,-0.078,-0.0783,-0.0787,-0.1075,-0.1137,-0.1339,-0.0975,-0.0979,-0.0982,0,-0.0944,-0.0951,-0.1075,-0.1038,-0.1052,-0.1105,-0.1115,-0.1146,-0.1134,-0.1105,-0.1113,-0.1043,-0.1109,-0.0996,-0.1089,-0.1006,-0.1024,-0.1011,-0.1017,-0.102,-0.0895,-0.1087,-0.1402,-0.1433,-0.1024,-0.102,-0.1017,0,-0.117,-0.1211,-0.129,-0.129,-0.1248,-0.1289,-0.1274,-0.1255,-0.1271,-0.1281,-0.1291,-0.1311,-0.1322,-0.134,-0.1279,-0.1202,-0.1381,-0.1262,-0.1362,-0.1365,-0.1405,-0.1404,-0.1728,-0.1416,-0.1416,-0.1415,-0.1415,0,-0.1408,-0.1488,-0.1391,-0.1441,-0.1529,-0.1446,-0.1537,-0.1511,-0.1496,-0.1541,-0.1447,-0.1492,-0.1408,-0.1446,-0.1399,-0.1484,-0.149,-0.1472,-0.1458,-0.148,-0.1483,-0.1491,-0.1476,-0.1423,-0.1422,-0.142,-0.1419,0,-0.1674,-0.1612,-0.1692,-0.1646,-0.1637,-0.1705,-0.1667,-0.1713,-0.1673,-0.1732,-0.1741,-0.1681,-0.1721,-0.1661,-0.1696,-0.1664,-0.1783,-0.1748,-0.1786,-0.1776,-0.188,-0.1872,-0.2222,-0.2265,-0.1925,-0.1929,-0.1931,0,-0.1829,-0.1888,-0.1849,-0.1871,-0.1861,-0.1899,-0.1914,-0.1836,-0.1856,-0.1848,-0.1896,-0.1928,-0.1949,-0.202,-0.1981,-0.2008,-0.1974,-0.2095,-0.1977,-0.1999,-0.1977,-0.1975,-0.1982,-0.2119,-0.2123,-0.2127,-0.2129,0,-0.2112,-0.2079,-0.2102,-0.2117,-0.2137,-0.2146,-0.2147,-0.2172,-0.209,-0.2119,-0.2157,-0.2174,-0.2209,-0.2243,-0.2261,-0.2249,-0.2178,-0.2167,-0.2191,-0.2215,-0.2235,-0.2227,-0.1853,-0.2159,-0.2156,-0.2154,-0.2152,-0.2151,-0.2327,-0.2376,-0.2356,-0.2387,-0.238,-0.2385,-0.2426,-0.2392,-0.2422,-0.2442,-0.2396,-0.2447,-0.2438,-0.2453,-0.245,-0.2492,-0.2439,-0.2475,-0.2484,-0.2494,-0.2511,-0.2228,-0.2495,-0.2494,-0.2493,-0.2492,-0.2492,0,-0.2606,-0.2589,-0.2618,-0.2623,-0.2648,-0.2576,-0.2576,-0.2603,-0.2648,-0.2643,-0.2666,-0.2713,-0.2747,-0.2712,-0.274,-0.2781,-0.2749,-0.2791,-0.2787,-0.2787,-0.2556,-0.2532,-0.2816,-0.2816,-0.2816,-0.2816,-0.2816,-0.2816,-0.2753,-0.2832,-0.2798,-0.2875,-0.2857,-0.2905,-0.2911,-0.2917,-0.2913,-0.2968,-0.2995,-0.2971,-0.2956,-0.2983,-0.3012,-0.3002,-0.3017,-0.3071,-0.305,-0.2834,-0.2803,-0.2772,-0.2749,-0.3075,-0.3075,-0.3277,-0.3279,-0.328]}]]